Location: Bannatyne
(13.0833°N, 59.5333°W)
Time: 04:25:30
(UTC+00:00)

deb Explorer IX - Pass Details

Date: 24 January 2020
Orbit: 549 x 1099 km, 38.8° (Epoch: 16 February)

Event Time Altitude Azimuth Distance (km) Brightness Sun altitude
Rises 21:14:06 0° 185° (S) 3,224 ? 8.5°
Reaches altitude 10° 21:18:26 10° 152° (SSE) 2,450 ? 7.6°
Maximum altitude 21:20:17 11° 133° (SE) 2,407 ? 7.2°
Drops below altitude 10° 21:22:12 10° 115° (ESE) 2,576 ? 6.7°
Sets 21:27:06 0° 84° (E) 3,668 ? 5.6°
